[[{"header":{"parameterUnit":"m.s-1","parameterCategory":1,"la1":30.2991,"la2":30.254,"lo1":-89.0895,"lo2":-89.0444,"dy":0.0017,"dx":0.0017,"nx":28,"ny":28,"refTime":"2025-07-03T09:00:00:Z","depth":0,"parameterNumber":2,"parameterNumberName":"U-component_of_WINDS"},"data":[0,0,0,0,0,0,0,0,0,0,0,0,0,0,0,0,0,0,0,0,0,0,0,0,0,0,0,0,0,0,0,0,0,0,0,0,0,0,0,0,0,0,0,0,0,0,0,0,0,0,0,0,0,0,0,0,0,0,2.1564,2.1564,0,2.1603,2.1604,2.1604,2.1517,2.1514,2.1511,2.1508,2.1551,2.1554,2.1558,0,0,0,0,0,0,0,0,0,0,0,0,0,2.1415,2.1419,2.1564,2.1564,2.1565,2.1603,2.1604,2.1604,2.1517,2.1514,2.151,2.1507,2.1549,2.1554,2.1558,0,0,0,0,0,0,0,0,0,0,0,0,0,2.147,2.142,2.1563,2.1526,2.1523,2.1603,2.1604,2.1604,2.1518,2.1514,2.1509,2.1505,2.1548,2.1553,2.1559,2.1678,0,0,2.1576,2.1579,0,0,0,0,0,0,0,0,2.1467,2.1476,2.1531,2.1528,2.1525,2.1551,2.1567,2.1629,2.1519,2.152,2.1508,2.1503,2.1554,2.1559,2.1576,2.168,2.1682,2.1577,2.158,2.1582,2.1584,0,0,0,0,0,0,0,2.1463,2.1473,2.1579,2.1532,2.1528,2.1508,2.1511,2.1578,2.156,2.1519,2.1513,2.1519,2.1552,2.1571,2.1576,2.1683,2.1577,2.1582,2.1585,2.1587,2.1888,2.1893,0,0,0,0,0,0,2.1464,2.1471,2.1578,2.158,2.1485,2.1514,2.1517,2.1547,2.1559,2.1557,2.1522,2.1515,2.1563,2.157,2.1577,2.1718,2.1582,2.1588,2.1591,2.1884,2.1889,2.1894,0,0,0,0,0,0,2.1461,2.1474,2.1576,2.1524,2.1535,2.1521,2.1555,2.155,2.1568,2.1562,2.1558,2.1545,2.156,2.1569,2.1654,2.1718,2.159,2.1595,2.1878,2.1885,2.1892,2.2,0,0,0,0,0,0,2.1457,2.1474,2.1518,2.1526,2.1538,2.1652,2.1559,2.1554,2.1578,2.1568,2.1581,2.158,2.1557,2.1646,2.166,2.1724,2.16,2.1872,2.1881,2.1889,2.1991,2.201,2.2026,0,0,0,0,0,2.1452,2.1547,2.1521,2.1534,2.1593,2.1656,2.1663,2.1635,2.1583,2.1628,2.1624,2.1579,2.1709,2.1655,2.167,2.1737,2.1868,2.1879,2.1889,2.1983,2.2006,2.2026,0,0,0,0,0,0,2.1548,2.1547,2.1518,2.1618,2.1638,2.1641,2.1696,2.166,2.1695,2.1684,2.1649,2.1653,2.1744,2.1749,2.1689,2.1853,2.178,2.1794,2.1847,2.1869,2.1886,2.1883,2.1604,0,0,0,0,0,2.1581,2.163,2.1628,2.1716,2.1728,2.1711,2.1737,2.1714,2.1732,2.174,2.1742,2.1763,2.1808,2.1839,2.188,2.1992,2.1994,2.2045,2.2063,2.2077,2.2089,2.2149,2.2172,2.1928,2.1928,2.1928,0,0,2.1648,2.1655,2.1688,2.1736,2.1748,2.1801,2.1718,2.1777,2.1817,2.1749,2.1829,2.1832,2.1853,2.1951,2.1995,2.1958,2.2158,2.2091,2.2102,2.2106,2.2162,2.2186,2.2206,2.1935,2.1934,2.1933,0,0,2.1799,2.1809,2.1884,2.1898,2.1918,2.1907,2.1925,2.1934,2.1933,2.2013,2.1963,2.2011,2.2089,2.2106,2.2126,2.2286,2.2246,2.2301,2.2393,2.2452,2.2471,2.2488,2.2545,2.2566,2.2313,2.2313,2.2313,0,2.1881,2.1958,2.1927,2.199,2.2013,2.1955,2.2032,2.2047,2.208,2.2098,2.2056,2.2155,2.2165,2.2267,2.2306,2.2323,2.2344,2.2298,2.2471,2.2487,2.2503,2.2557,2.2578,2.232,2.2319,2.2318,2.2318,0,2.2059,2.2113,2.2172,2.2205,2.2234,2.2304,2.2284,2.2319,2.2294,2.2287,2.237,2.238,2.2423,2.2446,2.2422,2.2545,2.2522,2.2477,2.2402,2.2533,2.2583,2.2604,2.2329,2.2326,2.2325,2.2323,0,0,2.2268,2.2285,2.2306,2.2321,2.234,2.2382,2.245,2.2492,2.2522,2.2548,2.2604,2.2673,2.2632,2.2653,2.2631,2.2683,2.281,2.2631,2.2631,2.2664,2.2947,2.298,2.3005,2.2784,2.2788,2.2791,2.2945,0,2.2417,2.2533,2.2508,2.2622,2.2673,2.262,2.2679,2.2698,2.2694,2.2737,2.2733,2.2783,2.2724,2.2737,2.2786,2.2784,2.2866,2.2773,2.2837,2.2839,2.2832,2.3031,2.3066,2.3211,2.2965,2.2968,2.297,0,2.2605,2.2638,2.2758,2.277,2.279,2.2844,2.2881,2.2923,2.2943,2.2937,2.2963,2.2932,2.3,2.2926,2.302,2.2958,2.2983,2.2986,2.2991,2.2995,2.2912,2.304,2.3256,2.3278,2.3001,2.2998,2.2996,0,2.2746,2.282,2.2901,2.2916,2.2932,2.2971,2.298,2.2996,2.3024,2.3057,2.3074,2.3115,2.3138,2.317,2.3151,2.3099,2.325,2.3174,2.3247,2.3247,2.3279,2.3277,2.3502,2.3297,2.3297,2.3297,2.3296,0,2.2914,2.299,2.2965,2.3015,2.3098,2.307,2.3153,2.3156,2.3171,2.3221,2.3179,2.3227,2.3199,2.3246,2.3232,2.3312,2.3323,2.332,2.3315,2.3323,2.3324,2.3338,2.3327,2.3302,2.3301,2.33,2.3299,0,2.3085,2.3071,2.3156,2.3165,2.3169,2.323,2.3238,2.3285,2.3279,2.3344,2.3357,2.3348,2.34,2.3385,2.3442,2.3433,2.3535,2.3518,2.3528,2.3523,2.3597,2.359,2.3838,2.3869,2.3645,2.3647,2.3649,0,2.3192,2.3249,2.3264,2.3295,2.3307,2.3356,2.3384,2.336,2.3391,2.342,2.3464,2.3513,2.355,2.3637,2.3636,2.368,2.3663,2.3747,2.3669,2.3676,2.3663,2.366,2.3665,2.3762,2.3764,2.3766,2.3768,0,2.3385,2.3376,2.3417,2.3458,2.3492,2.3523,2.3549,2.3577,2.3554,2.3592,2.3645,2.3674,2.3733,2.3782,2.3823,2.3832,2.3797,2.3793,2.3812,2.382,2.3824,2.3823,2.3569,2.3787,2.3785,2.3784,2.3783,2.3782,2.3526,2.3575,2.3593,2.3642,2.366,2.3686,2.3731,2.3731,2.3775,2.382,2.3804,2.3865,2.3886,2.3937,2.3952,2.4,2.3968,2.3996,2.4003,2.401,2.4019,2.3817,2.4007,2.4007,2.4006,2.4006,2.4006,0,2.3716,2.3726,2.3771,2.381,2.3849,2.3813,2.3841,2.3876,2.393,2.3953,2.3991,2.4053,2.4101,2.4105,2.415,2.4188,2.4173,2.4201,2.4197,2.42,2.4045,2.4024,2.4212,2.4212,2.4212,2.4212,2.4212,2.4212,2.3819,2.3899,2.3893,2.3982,2.3992,2.4051,2.4071,2.4095,2.4113,2.4184,2.4224,2.4226,2.4242,2.4288,2.4331,2.4331,2.435,2.4383,2.4377,2.4232,2.4211,2.4191,2.4171,2.4388,2.4388,2.4528,2.453,2.4531]},{"header":{"parameterUnit":"m.s-1","parameterCategory":1,"la1":30.2991,"la2":30.254,"lo1":-89.0895,"lo2":-89.0444,"dy":0.0017,"dx":0.0017,"nx":28,"ny":28,"refTime":"2025-07-03T09:00:00:Z","depth":0,"parameterNumber":3,"parameterNumberName":"V-component_of_WINDS"},"data":[0,0,0,0,0,0,0,0,0,0,0,0,0,0,0,0,0,0,0,0,0,0,0,0,0,0,0,0,0,0,0,0,0,0,0,0,0,0,0,0,0,0,0,0,0,0,0,0,0,0,0,0,0,0,0,0,0,0,-0.0288,-0.0289,0,-0.0307,-0.0307,-0.0307,-0.0372,-0.0373,-0.0375,-0.0376,-0.0394,-0.0393,-0.0392,0,0,0,0,0,0,0,0,0,0,0,0,0,-0.031,-0.0309,-0.0288,-0.0289,-0.0289,-0.0307,-0.0307,-0.0307,-0.0372,-0.0374,-0.0375,-0.0377,-0.0394,-0.0393,-0.0392,0,0,0,0,0,0,0,0,0,0,0,0,0,-0.0311,-0.0309,-0.0288,-0.0323,-0.0327,-0.0307,-0.0307,-0.0307,-0.0371,-0.0374,-0.0376,-0.0378,-0.0395,-0.0393,-0.0392,-0.0339,0,0,-0.0388,-0.0387,0,0,0,0,0,0,0,0,-0.0311,-0.0311,-0.0318,-0.0321,-0.0325,-0.0339,-0.0321,-0.0318,-0.0371,-0.0354,-0.0376,-0.0379,-0.0374,-0.0374,-0.0373,-0.034,-0.0341,-0.0388,-0.0387,-0.0386,-0.0386,0,0,0,0,0,0,0,-0.0311,-0.031,-0.0296,-0.0318,-0.0322,-0.0338,-0.0341,-0.0321,-0.0351,-0.0356,-0.0361,-0.0362,-0.0376,-0.0374,-0.0374,-0.0341,-0.0388,-0.0387,-0.0386,-0.0385,-0.0268,-0.0266,0,0,0,0,0,0,-0.0306,-0.031,-0.0295,-0.0296,-0.0323,-0.0336,-0.0339,-0.0332,-0.0352,-0.0357,-0.036,-0.0365,-0.0375,-0.0375,-0.0375,-0.0316,-0.0386,-0.0385,-0.0384,-0.027,-0.0268,-0.0265,0,0,0,0,0,0,-0.0306,-0.0304,-0.0294,-0.0304,-0.0304,-0.0333,-0.0325,-0.0332,-0.033,-0.0355,-0.0361,-0.0352,-0.0377,-0.0377,-0.0348,-0.0317,-0.0384,-0.0383,-0.0273,-0.027,-0.0266,-0.0196,0,0,0,0,0,0,-0.0307,-0.0304,-0.0284,-0.0303,-0.0303,-0.0267,-0.0323,-0.033,-0.0327,-0.0334,-0.0349,-0.0354,-0.0379,-0.035,-0.0347,-0.0316,-0.0382,-0.0276,-0.0272,-0.0268,-0.0201,-0.019,-0.0181,0,0,0,0,0,-0.0307,-0.0263,-0.0282,-0.028,-0.0279,-0.0265,-0.0265,-0.0295,-0.0324,-0.0305,-0.0322,-0.0354,-0.0321,-0.0346,-0.0344,-0.0312,-0.0278,-0.0273,-0.0268,-0.0206,-0.0193,-0.0182,0,0,0,0,0,0,-0.0238,-0.0266,-0.0288,-0.0249,-0.0254,-0.0276,-0.0252,-0.028,-0.0277,-0.0283,-0.032,-0.0323,-0.0289,-0.0298,-0.0326,-0.0263,-0.0305,-0.0299,-0.0259,-0.0247,-0.0237,-0.0235,-0.0381,0,0,0,0,0,-0.0218,-0.0205,-0.023,-0.0192,-0.0194,-0.0223,-0.0218,-0.024,-0.0247,-0.025,-0.0264,-0.027,-0.0261,-0.0254,-0.0247,-0.0203,-0.0208,-0.018,-0.017,-0.0162,-0.0156,-0.0135,-0.0123,-0.0248,-0.0248,-0.0248,0,0,-0.0177,-0.0191,-0.018,-0.0179,-0.0186,-0.0171,-0.0224,-0.0206,-0.0195,-0.0247,-0.0221,-0.0232,-0.0241,-0.0204,-0.0189,-0.021,-0.0123,-0.0155,-0.0149,-0.0147,-0.0128,-0.0116,-0.0106,-0.0245,-0.0245,-0.0246,0,0,-0.0095,-0.0103,-0.0074,-0.008,-0.0091,-0.011,-0.0103,-0.0121,-0.0131,-0.0106,-0.0144,-0.0132,-0.0116,-0.0121,-0.0121,-0.0043,-0.0073,-0.004,0.0012,0.0034,0.0044,0.0052,0.008,0.009,-0.0034,-0.0034,-0.0034,0,-0.0042,-0.0022,-0.0055,-0.0035,-0.0034,-0.0081,-0.0052,-0.0056,-0.0063,-0.0061,-0.0086,-0.0068,-0.0076,-0.0042,-0.0024,-0.0022,-0.0016,-0.0038,0.0045,0.0053,0.0061,0.0086,0.0097,-0.003,-0.003,-0.0031,-0.0031,0,0.0043,0.0058,0.0083,0.0076,0.008,0.0104,0.0074,0.0082,0.0059,0.0042,0.0067,0.0054,0.0057,0.0063,0.0041,0.0094,0.0081,0.0051,0.0009,0.0077,0.0101,0.011,-0.0024,-0.0026,-0.0027,-0.0028,0,0,0.017,0.0143,0.0152,0.0148,0.0133,0.0143,0.0165,0.0167,0.0174,0.0171,0.0188,0.0202,0.0174,0.0173,0.015,0.0169,0.0231,0.0137,0.0136,0.0154,0.0287,0.031,0.0322,0.0211,0.0213,0.0214,0.0288,0,0.0248,0.0283,0.0253,0.0295,0.0307,0.0262,0.0281,0.0273,0.0258,0.0266,0.0248,0.0259,0.0221,0.0221,0.0237,0.022,0.0257,0.0214,0.0226,0.0227,0.023,0.0334,0.0358,0.0428,0.0297,0.0298,0.0299,0,0.0344,0.0343,0.0386,0.0366,0.037,0.0388,0.0386,0.0395,0.0385,0.0372,0.0371,0.0341,0.0361,0.0319,0.0345,0.0317,0.032,0.0312,0.0314,0.0314,0.0268,0.0337,0.045,0.046,0.0314,0.0313,0.0312,0,0.0431,0.0441,0.0467,0.0465,0.0443,0.0456,0.0447,0.0435,0.0438,0.0436,0.0438,0.0439,0.044,0.0441,0.0413,0.0385,0.0443,0.0399,0.0432,0.0433,0.0447,0.0447,0.0562,0.0449,0.0449,0.0449,0.0449,0,0.0521,0.0549,0.0506,0.0522,0.0551,0.0516,0.0546,0.0533,0.0522,0.0534,0.0495,0.0508,0.047,0.0479,0.0457,0.0481,0.0482,0.0472,0.0466,0.0476,0.0477,0.0477,0.0472,0.0452,0.0451,0.0451,0.045,0,0.0624,0.0596,0.0622,0.0598,0.0593,0.0615,0.0595,0.0609,0.059,0.0606,0.0608,0.0578,0.0586,0.0558,0.0562,0.0547,0.0583,0.0569,0.0586,0.0582,0.0617,0.0614,0.0737,0.0751,0.063,0.0631,0.0632,0,0.0683,0.0703,0.0681,0.0686,0.068,0.0689,0.0691,0.0656,0.066,0.0649,0.0664,0.0669,0.067,0.0685,0.0664,0.0666,0.0651,0.0694,0.0652,0.066,0.0652,0.0651,0.0652,0.0703,0.0705,0.0706,0.0707,0,0.0791,0.0776,0.078,0.078,0.0783,0.0781,0.0776,0.0783,0.0745,0.0751,0.0758,0.076,0.0762,0.0767,0.0764,0.0755,0.0725,0.072,0.0728,0.0739,0.0748,0.0743,0.061,0.0718,0.0717,0.0716,0.0715,0.0715,0.0874,0.0889,0.0875,0.0881,0.0873,0.0869,0.0881,0.0863,0.0868,0.0867,0.0846,0.0857,0.0845,0.0838,0.0832,0.084,0.082,0.0832,0.0835,0.0838,0.0844,0.0746,0.0839,0.0839,0.0839,0.0838,0.0838,0,0.098,0.0968,0.0973,0.0967,0.0972,0.0942,0.0934,0.094,0.095,0.0941,0.0943,0.0951,0.0955,0.0933,0.0934,0.0945,0.0931,0.0946,0.0945,0.0943,0.0862,0.0855,0.0957,0.0957,0.0957,0.0957,0.0957,0.0957,0.1035,0.1059,0.1042,0.1061,0.1049,0.1059,0.1057,0.1053,0.1046,0.1056,0.1059,0.1044,0.103,0.103,0.1032,0.1025,0.1027,0.1047,0.1036,0.0961,0.0949,0.0938,0.0931,0.1048,0.1048,0.1117,0.1118,0.1118]}]]